User: anonymous   Login
Location: SAPM � Hemmingford
(45.0500°N, 73.5833°W)
Time: 00:52:20
(UTC-04:00)
Language:

Cosmos 1603 - Orbit

View from above orbital plane
View from above orbital plane
View from above satellite
View from above satellite

Ground track
Ground track

The orbit data is extracted from the following two-line orbital elements,

1 15333U 84106A   17204.56784375 -.00000035 +00000-0 +66151-5 0  9996
2 15333 071.0276 016.1935 0018537 157.3950 202.7992 14.14061968693165
Epoch (UTC): 23 July 2017 13:37:41
Eccentricity: 0.0018537
inclination: 71.0276°
perigee height: 832 km
apogee height: 859 km
right ascension of ascending node: 16.1935°
argument of perigee: 157.3950°
revolutions per day: 14.14061968
mean anomaly at epoch: 202.7992°
orbit number at epoch: 69316

The dashed part of the orbit path shows where the satellite is in the earth's shadow,  

DLR